Location: La Chapelle
(48.3135°N, 1.3085°W)
Time: 02:12:00
(UTC+00:00)

SJ 16-02 - Pass Details

Date: 03 March 2021
Orbit: 605 x 617 km, 75.0° (Epoch: 17 April)

Event Time Altitude Azimuth Distance (km) Brightness Sun altitude
Rises 21:11:59 0° 332° (NNW) 2,884 5.6 -32.8°
Reaches altitude 10° 21:14:20 10° 324° (NW) 1,976 4.7 -33.1°
Enters shadow 21:16:29 25° 305° (NW) 1,261 3.5 -33.4°
